| time (UTC) | temp F | wind direction | speed knots | gust knots | rain 1hr in | rain 24hr in | rain mn in | humidity % | barometer mb |
| 20260506002030 | 47 | 0.0 | 0.9 | 0.00 | 0.11 | 0.00 | 98 | 1008.9 | |
| 20260506001029 | 47 | 53 | 0.0 | 0.9 | 0.00 | 0.11 | 0.00 | 98 | 1009.0 |
| 20260506000030 | 47 | 32 | 0.0 | 1.7 | 0.00 | 0.11 | 0.00 | 98 | 1009.1 |
| 20260505235030 | 47 | 39 | 0.9 | 2.6 | 0.00 | 0.11 | 0.00 | 98 | 1009.1 |
| 20260505234030 | 47 | 34 | 0.0 | 1.7 | 0.00 | 0.11 | 0.00 | 98 | 1009.2 |
| 20260505233030 | 46 | 41 | 0.0 | 0.9 | 0.00 | 0.11 | 0.00 | 98 | 1009.3 |
| 20260505232030 | 47 | 36 | 0.0 | 1.7 | 0.00 | 0.11 | 0.00 | 98 | 1009.3 |
| 20260505231030 | 47 | 42 | 0.0 | 1.7 | 0.00 | 0.11 | 0.00 | 98 | 1009.3 |
| 20260505230031 | 47 | 40 | 0.0 | 1.7 | 0.00 | 0.11 | 0.00 | 98 | 1009.4 |
| 20260505225031 | 47 | 38 | 0.9 | 1.7 | 0.00 | 0.11 | 0.00 | 98 | 1009.5 |
| 20260505224030 | 47 | 37 | 0.9 | 2.6 | 0.00 | 0.11 | 0.00 | 98 | 1009.5 |
| 20260505223031 | 47 | 40 | 0.0 | 1.7 | 0.00 | 0.11 | 0.00 | 97 | 1009.5 |
| 20260505222031 | 48 | 46 | 0.0 | 0.9 | 0.00 | 0.11 | 0.00 | 97 | 1009.5 |
| 20260505221030 | 48 | 40 | 0.0 | 1.7 | 0.00 | 0.11 | 0.00 | 97 | 1009.6 |
| 20260505220030 | 48 | 34 | 0.9 | 1.7 | 0.00 | 0.11 | 0.11 | 97 | 1009.5 |
| 20260505215030 | 49 | 37 | 0.9 | 2.6 | 0.00 | 0.11 | 0.11 | 97 | 1009.5 |
| 20260505214030 | 48 | 39 | 0.9 | 1.7 | 0.00 | 0.11 | 0.11 | 97 | 1009.7 |
| 20260505213030 | 49 | 37 | 0.9 | 1.7 | 0.00 | 0.11 | 0.11 | 97 | 1009.5 |
| 20260505212029 | 49 | 35 | 0.9 | 1.7 | 0.00 | 0.11 | 0.11 | 96 | 1009.6 |
| 20260505211029 | 50 | 43 | 0.0 | 1.7 | 0.00 | 0.11 | 0.11 | 97 | 1009.6 |
| 20260505210030 | 50 | 43 | 0.0 | 1.7 | 0.00 | 0.11 | 0.11 | 97 | 1009.6 |
| 20260505205030 | 50 | 40 | 0.9 | 1.7 | 0.00 | 0.11 | 0.11 | 96 | 1009.7 |
| 20260505204031 | 52 | 0.0 | 0.9 | 0.00 | 0.11 | 0.11 | 97 | 1009.7 | |
| 20260505203030 | 52 | 29 | 0.9 | 1.7 | 0.00 | 0.11 | 0.11 | 97 | 1009.6 |
| 20260505202030 | 51 | 24 | 0.0 | 0.9 | 0.00 | 0.11 | 0.11 | 97 | 1009.5 |
| 20260505201030 | 51 | 33 | 0.0 | 0.9 | 0.00 | 0.11 | 0.11 | 96 | 1009.3 |
| 20260505200030 | 51 | 35 | 0.9 | 1.7 | 0.00 | 0.11 | 0.11 | 96 | 1009.2 |
| 20260505195030 | 52 | 37 | 0.9 | 1.7 | 0.00 | 0.11 | 0.11 | 96 | 1009.1 |
| 20260505194030 | 52 | 23 | 0.0 | 0.9 | 0.00 | 0.11 | 0.11 | 95 | 1009.0 |
| 20260505193030 | 52 | 27 | 0.9 | 1.7 | 0.00 | 0.11 | 0.11 | 95 | 1009.1 |
| 20260505192030 | 53 | 37 | 0.0 | 0.9 | 0.02 | 0.11 | 0.11 | 95 | 1009.0 |
| 20260505191030 | 54 | 28 | 0.0 | 1.7 | 0.02 | 0.11 | 0.11 | 95 | 1008.9 |
| 20260505190031 | 54 | 39 | 0.9 | 2.6 | 0.02 | 0.11 | 0.11 | 94 | 1008.9 |
| 20260505185031 | 55 | 0.0 | 0.0 | 0.02 | 0.11 | 0.11 | 93 | 1008.7 | |
| 20260505184031 | 55 | 38 | 0.0 | 1.7 | 0.02 | 0.11 | 0.11 | 92 | 1008.7 |
| 20260505183031 | 56 | 57 | 0.0 | 1.7 | 0.02 | 0.11 | 0.11 | 91 | 1008.8 |
| 20260505182030 | 56 | 22 | 0.0 | 2.6 | 0.00 | 0.09 | 0.09 | 91 | 1008.8 |
| 20260505181031 | 56 | 0.0 | 0.0 | 0.00 | 0.09 | 0.09 | 91 | 1008.7 | |
| 20260505180030 | 56 | 30 | 0.0 | 1.7 | 0.00 | 0.09 | 0.09 | 91 | 1008.4 |
| 20260505175030 | 57 | 31 | 1.7 | 3.5 | 0.00 | 0.10 | 0.09 | 90 | 1008.5 |
| 20260505174030 | 57 | 40 | 0.0 | 1.7 | 0.00 | 0.10 | 0.09 | 90 | 1008.3 |
| 20260505173030 | 57 | 13 | 0.9 | 2.6 | 0.00 | 0.10 | 0.09 | 90 | 1008.4 |
| 20260505172030 | 58 | 33 | 0.9 | 2.6 | 0.00 | 0.11 | 0.09 | 90 | 1008.3 |
| 20260505171030 | 58 | 30 | 1.7 | 3.5 | 0.00 | 0.11 | 0.09 | 90 | 1008.2 |
| 20260505170030 | 58 | 0.0 | 0.9 | 0.00 | 0.11 | 0.09 | 90 | 1008.4 | |
| 20260505165030 | 57 | 25 | 0.9 | 2.6 | 0.00 | 0.11 | 0.09 | 88 | 1008.3 |
| 20260505164031 | 58 | 27 | 0.9 | 0.9 | 0.00 | 0.11 | 0.09 | 89 | 1008.3 |
| 20260505163030 | 58 | 0.0 | 0.0 | 0.00 | 0.11 | 0.09 | 91 | 1008.2 | |
| 20260505162030 | 58 | 0.0 | 0.9 | 0.00 | 0.11 | 0.09 | 90 | 1008.4 | |
| 20260505161030 | 57 | 0.0 | 0.0 | 0.00 | 0.11 | 0.09 | 92 | 1008.4 | |
| 20260505153030 | 56 | 0.0 | 0.9 | 0.09 | 0.11 | 0.09 | 92 | 1008.3 | |
| 20260505152030 | 56 | 0.0 | 0.0 | 0.09 | 0.11 | 0.09 | 91 | 1008.4 | |
| 20260505151030 | 57 | 0.0 | 0.0 | 0.09 | 0.11 | 0.09 | 88 | 1008.5 | |
| 20260505125030 | 60 | 225 | 0.0 | 0.9 | 0.00 | 0.02 | 0.00 | 80 | 1008.4 |
| 20260505124030 | 60 | 226 | 0.0 | 1.7 | 0.00 | 0.02 | 0.00 | 80 | 1008.5 |
| 20260505123030 | 59 | 201 | 0.9 | 1.7 | 0.00 | 0.02 | 0.00 | 82 | 1008.6 |
| 20260505122030 | 59 | 187 | 0.9 | 2.6 | 0.00 | 0.02 | 0.00 | 84 | 1008.6 |
| 20260505121030 | 59 | 199 | 0.9 | 1.7 | 0.00 | 0.02 | 0.00 | 84 | 1008.7 |
| 20260505120031 | 59 | 207 | 0.9 | 2.6 | 0.00 | 0.02 | 0.00 | 85 | 1008.8 |
| 20260505115031 | 59 | 204 | 0.9 | 2.6 | 0.00 | 0.02 | 0.00 | 84 | 1008.8 |
| 20260505114030 | 59 | 198 | 0.9 | 2.6 | 0.00 | 0.02 | 0.00 | 83 | 1008.9 |
| 20260505113031 | 59 | 211 | 0.9 | 1.7 | 0.00 | 0.02 | 0.00 | 84 | 1008.9 |
| 20260505112030 | 59 | 187 | 1.7 | 2.6 | 0.00 | 0.02 | 0.00 | 84 | 1009.1 |
| 20260505111030 | 59 | 173 | 1.7 | 5.2 | 0.00 | 0.02 | 0.00 | 83 | 1009.1 |
| 20260505102030 | 58 | 175 | 1.7 | 2.6 | 0.00 | 0.02 | 0.00 | 82 | 1009.2 |
| 20260505101030 | 58 | 187 | 0.9 | 2.6 | 0.00 | 0.02 | 0.00 | 83 | 1009.2 |
| 20260505100031 | 58 | 198 | 0.9 | 2.6 | 0.00 | 0.02 | 0.00 | 84 | 1009.2 |
| 20260505095030 | 58 | 191 | 0.9 | 1.7 | 0.00 | 0.02 | 0.00 | 83 | 1009.1 |
| 20260505094030 | 58 | 126 | 0.0 | 0.9 | 0.00 | 0.02 | 0.00 | 81 | 1009.1 |
| 20260505093030 | 58 | 211 | 0.0 | 1.7 | 0.00 | 0.02 | 0.00 | 83 | 1009.3 |
| 20260505092030 | 58 | 222 | 0.9 | 1.7 | 0.00 | 0.02 | 0.00 | 81 | 1009.4 |
| 20260505091030 | 58 | 212 | 0.9 | 1.7 | 0.00 | 0.02 | 0.00 | 83 | 1009.4 |
| 20260505090031 | 58 | 194 | 0.9 | 1.7 | 0.00 | 0.02 | 0.00 | 82 | 1009.5 |
| 20260505085031 | 58 | 206 | 0.0 | 0.9 | 0.00 | 0.02 | 0.00 | 81 | 1009.6 |
| 20260505084030 | 57 | 180 | 0.9 | 1.7 | 0.00 | 0.02 | 0.00 | 81 | 1009.7 |
| 20260505083030 | 57 | 199 | 1.7 | 1.7 | 0.00 | 0.02 | 0.00 | 81 | 1009.8 |
| 20260505082031 | 57 | 239 | 0.0 | 0.9 | 0.00 | 0.02 | 0.00 | 80 | 1009.7 |
| 20260505081030 | 57 | 227 | 0.9 | 1.7 | 0.00 | 0.02 | 0.00 | 80 | 1009.8 |
| 20260505080030 | 57 | 228 | 0.0 | 0.9 | 0.00 | 0.02 | 0.00 | 80 | 1009.9 |
| 20260505075030 | 56 | 229 | 0.0 | 0.9 | 0.00 | 0.02 | 0.00 | 81 | 1009.9 |
| 20260505074030 | 56 | 147 | 0.0 | 0.9 | 0.00 | 0.02 | 0.00 | 81 | 1010.0 |
| 20260505073030 | 55 | 0.0 | 0.0 | 0.00 | 0.02 | 0.00 | 84 | 1010.2 | |
| 20260505072030 | 55 | 0.0 | 0.0 | 0.00 | 0.02 | 0.00 | 85 | 1010.1 | |
| 20260505071030 | 54 | 121 | 0.0 | 0.9 | 0.00 | 0.02 | 0.00 | 88 | 1010.2 |
| 20260505070031 | 53 | 183 | 0.0 | 1.7 | 0.00 | 0.02 | 0.00 | 90 | 1010.3 |
| 20260505065030 | 54 | 233 | 0.0 | 0.9 | 0.00 | 0.02 | 0.00 | 88 | 1010.2 |
| 20260505064030 | 54 | 0.0 | 0.0 | 0.00 | 0.02 | 0.00 | 88 | 1010.2 | |
| 20260505063030 | 53 | 0.0 | 0.0 | 0.00 | 0.02 | 0.00 | 91 | 1010.3 | |
| 20260505062030 | 53 | 0.0 | 0.0 | 0.00 | 0.02 | 0.00 | 93 | 1010.2 | |
| 20260505061030 | 52 | 0.0 | 0.0 | 0.00 | 0.02 | 0.00 | 94 | 1010.5 | |
| 20260505060031 | 52 | 0.0 | 0.0 | 0.00 | 0.02 | 0.00 | 94 | 1010.4 | |
| 20260505055030 | 52 | 0.0 | 0.0 | 0.00 | 0.02 | 0.00 | 94 | 1010.4 | |
| 20260505054030 | 52 | 0.0 | 0.9 | 0.00 | 0.02 | 0.00 | 94 | 1010.3 | |
| 20260505053030 | 52 | 37 | 0.9 | 0.9 | 0.00 | 0.02 | 0.00 | 95 | 1010.2 |
| 20260505052030 | 51 | 0.0 | 0.0 | 0.00 | 0.02 | 0.00 | 95 | 1010.1 | |
| 20260505051030 | 51 | 0.0 | 0.0 | 0.00 | 0.02 | 0.00 | 96 | 1010.3 | |
| 20260505041030 | 49 | 0.0 | 0.0 | 0.00 | 0.02 | 0.00 | 96 | 1010.4 | |
| 20260505040030 | 49 | 0.0 | 0.0 | 0.00 | 0.02 | 0.00 | 96 | 1010.1 | |
| 20260505035030 | 49 | 37 | 0.0 | 0.9 | 0.00 | 0.02 | 0.00 | 96 | 1010.2 |
| 20260505034030 | 49 | 0.0 | 0.0 | 0.00 | 0.02 | 0.00 | 96 | 1010.3 | |
| 20260505033030 | 49 | 37 | 0.0 | 0.9 | 0.00 | 0.02 | 0.00 | 96 | 1010.5 |
| 20260505032030 | 49 | 37 | 0.0 | 0.9 | 0.00 | 0.02 | 0.00 | 96 | 1010.5 |
| 20260505031030 | 49 | 0.0 | 0.0 | 0.00 | 0.02 | 0.00 | 96 | 1010.6 | |
| 20260505030031 | 49 | 0.0 | 0.0 | 0.00 | 0.02 | 0.00 | 96 | 1010.6 | |
| 20260505025031 | 49 | 38 | 0.9 | 1.7 | 0.00 | 0.02 | 0.00 | 95 | 1010.6 |
| 20260505024030 | 49 | 42 | 0.9 | 1.7 | 0.00 | 0.02 | 0.00 | 96 | 1010.6 |
| 20260505023030 | 49 | 0.0 | 0.9 | 0.00 | 0.02 | 0.00 | 96 | 1010.8 | |
| 20260505022030 | 49 | 0.0 | 0.0 | 0.00 | 0.02 | 0.00 | 96 | 1011.0 | |
| 20260505020031 | 49 | 34 | 0.9 | 1.7 | 0.00 | 0.02 | 0.00 | 96 | 1011.0 |
| 20260505015031 | 49 | 0.0 | 0.0 | 0.00 | 0.02 | 0.00 | 96 | 1011.2 | |
| 20260505014031 | 49 | 0.0 | 0.0 | 0.00 | 0.02 | 0.00 | 96 | 1011.4 | |
| 20260505013031 | 49 | 34 | 0.0 | 1.7 | 0.00 | 0.02 | 0.00 | 96 | 1011.4 |
| 20260505012031 | 49 | 42 | 0.9 | 0.9 | 0.00 | 0.02 | 0.00 | 95 | 1011.5 |
| 20260505011030 | 50 | 83 | 0.0 | 0.9 | 0.00 | 0.02 | 0.00 | 96 | 1011.6 |
| 20260505010031 | 50 | 23 | 0.0 | 0.9 | 0.00 | 0.02 | 0.00 | 95 | 1011.9 |
| 20260505005030 | 51 | 0.0 | 0.0 | 0.00 | 0.02 | 0.00 | 95 | 1012.0 | |
| 20260505004030 | 51 | 38 | 0.9 | 1.7 | 0.00 | 0.02 | 0.00 | 95 | 1012.0 |
| 20260505003030 | 51 | 0.0 | 0.0 | 0.00 | 0.02 | 0.00 | 95 | 1012.1 |